Total_Precipitation_Accumulation
1.67 1.75 1.69 1.67 1.62 1.63 1.68 1.67 1.63 1.60 1.53 1.52 1.59 1.62 1.59 1.64 1.74 1.82 1.71 1.74 1.73 1.74 1.73 1.78 1.78 1.91 1.92 1.85 1.96 2.01 2.08 2.19 1.97 1.61 1.64 1.75 1.75 1.56 1.50 1.44 1.42 1.43 1.38
1.47 1.45 1.45 1.51 1.51 1.46 1.44 1.49 1.54 1.47 1.41 1.46 1.52 1.48 1.40 1.50 1.67 1.71 1.64 1.70 1.73 1.69 1.77 1.91 1.81 1.88 1.94 2.01 2.18 2.09 2.15 2.42 2.34 2.01 1.95 2.03 1.92 1.80 1.73 1.62 1.40 1.33 1.32
1.22 1.21 1.24 1.28 1.29 1.29 1.31 1.38 1.46 1.48 1.48 1.45 1.42 1.35 1.35 1.42 1.50 1.52 1.61 1.72 1.77 1.79 1.88 1.95 1.98 2.15 2.06 2.10 2.15 2.12 2.17 2.41 2.60 2.37 2.18 2.28 2.24 2.03 1.97 1.75 1.59 1.59 1.39
1.12 1.20 1.32 1.37 1.40 1.41 1.40 1.47 1.57 1.63 1.58 1.58 1.55 1.58 1.60 1.56 1.56 1.62 1.71 1.77 1.79 1.85 1.99 2.03 2.05 2.11 2.17 2.31 2.31 2.38 2.53 2.72 2.85 2.71 2.57 2.64 2.67 2.55 2.34 1.96 1.85 1.73 1.59
1.29 1.40 1.58 1.73 1.75 1.64 1.64 1.74 1.81 1.86 1.80 1.92 1.90 1.88 1.93 1.88 1.70 1.81 1.89 1.83 1.94 1.88 1.96 2.01 1.99 2.09 2.15 2.25 2.20 2.39 2.70 2.89 3.02 3.04 2.98 3.12 3.07 2.95 2.61 2.23 2.13 2.01 1.83
1.16 1.30 1.51 1.71 1.82 1.83 1.88 1.99 2.01 1.98 2.09 2.17 2.10 2.07 2.06 1.83 1.94 2.00 1.98 2.05 2.09 2.04 2.05 2.08 2.05 2.03 1.94 1.96 2.04 2.17 2.36 2.56 2.79 3.00 3.08 3.16 3.19 3.09 2.89 2.62 2.28 2.02 1.82
1.37 1.55 1.66 1.82 1.96 1.98 1.95 1.99 2.03 2.05 2.04 2.09 2.10 2.13 2.02 1.96 1.96 1.82 1.84 1.87 1.99 2.05 2.08 2.08 1.90 1.76 1.80 1.71 1.85 1.91 1.90 1.96 2.10 2.39 2.60 2.65 2.89 3.01 2.92 2.56 2.25 1.97 1.75
1.32 1.48 1.61 1.80 1.93 2.01 2.10 2.14 2.21 2.27 2.28 2.28 2.23 2.20 2.18 2.04 1.93 1.77 1.84 1.74 1.80 1.84 1.87 1.90 1.87 1.76 1.75 1.83 1.82 1.70 1.55 1.52 1.65 1.67 1.76 2.01 2.32 2.66 2.77 2.63 2.57 2.28 1.95
1.53 1.70 1.84 1.94 2.08 2.15 2.18 2.30 2.41 2.48 2.45 2.43 2.41 2.42 2.42 2.40 2.33 2.04 1.96 1.80 1.84 1.83 1.82 1.83 1.80 1.65 1.76 1.70 1.64 1.65 1.55 1.46 1.47 1.51 1.56 1.76 2.06 2.32 2.55 2.58 2.48 2.38 2.10
1.92 1.97 2.05 2.17 2.24 2.23 2.24 2.31 2.35 2.38 2.39 2.39 2.33 2.39 2.37 2.39 2.46 2.18 1.96 1.73 1.76 1.79 1.87 1.88 1.88 1.72 1.78 1.71 1.65 1.69 1.59 1.51 1.50 1.48 1.50 1.56 1.63 1.93 2.25 2.26 2.24 2.29 2.14
1.94 2.02 2.13 2.23 2.42 2.53 2.55 2.41 2.27 2.26 2.32 2.41 2.40 2.46 2.46 2.41 2.36 2.01 1.87 1.78 1.84 1.88 1.83 1.78 1.79 1.80 1.61 1.50 1.44 1.43 1.49 1.52 1.53 1.47 1.41 1.42 1.48 1.60 1.82 1.92 2.00 2.02 1.96
1.91 2.03 2.15 2.21 2.22 2.26 2.50 2.55 2.48 2.38 2.31 2.34 2.42 2.37 2.30 2.24 2.11 1.81 1.57 1.57 1.65 1.67 1.66 1.62 1.61 1.56 1.35 1.21 1.07 1.05 1.12 1.11 1.17 1.27 1.27 1.24 1.27 1.34 1.52 1.78 1.96 1.98 1.86
1.98 2.14 2.29 2.34 2.38 2.34 2.35 2.41 2.38 2.30 2.16 2.03 2.09 2.13 2.12 2.13 1.99 1.70 1.42 1.33 1.36 1.30 1.37 1.56 1.55 1.41 1.28 1.19 1.12 1.04 0.96 0.89 0.97 1.06 1.01 1.02 1.07 1.18 1.36 1.66 1.93 2.11 2.01
2.08 2.14 2.20 2.25 2.27 2.31 2.42 2.34 2.26 2.24 2.17 2.00 2.01 2.05 2.08 2.07 1.94 1.70 1.52 1.42 1.37 1.30 1.33 1.50 1.56 1.54 1.43 1.32 1.22 1.06 0.89 0.87 0.90 0.94 0.99 1.02 1.13 1.22 1.32 1.42 1.68 1.89 2.00
1.91 1.86 1.94 2.04 2.08 2.08 2.22 2.29 2.11 2.01 2.05 1.96 2.02 2.19 2.14 1.96 1.81 1.65 1.46 1.42 1.42 1.47 1.48 1.57 1.68 1.70 1.67 1.54 1.37 1.21 1.10 1.04 1.00 0.99 1.08 1.11 1.15 1.17 1.19 1.24 1.43 1.58 1.59
1.95 1.91 1.90 1.94 1.98 2.00 1.97 2.01 1.97 1.73 1.69 1.61 1.67 1.77 1.82 1.73 1.63 1.55 1.46 1.41 1.35 1.35 1.36 1.51 1.77 1.84 1.84 1.80 1.68 1.48 1.33 1.23 1.17 1.15 1.17 1.17 1.17 1.21 1.25 1.30 1.38 1.50 1.50
2.05 2.13 2.08 1.90 1.80 1.79 1.75 1.71 1.70 1.59 1.37 1.30 1.30 1.28 1.26 1.27 1.29 1.36 1.40 1.35 1.28 1.17 1.11 1.29 1.59 1.80 1.87 1.88 1.79 1.59 1.40 1.35 1.38 1.33 1.29 1.26 1.25 1.28 1.35 1.38 1.41 1.50 1.55
1.73 1.80 1.77 1.67 1.60 1.54 1.50 1.44 1.38 1.46 1.43 1.31 1.23 1.18 1.15 1.12 1.15 1.33 1.46 1.29 1.17 1.12 1.06 1.20 1.45 1.72 1.84 1.89 1.86 1.79 1.64 1.57 1.55 1.50 1.45 1.40 1.38 1.40 1.39 1.40 1.42 1.44 1.48
1.54 1.56 1.51 1.52 1.57 1.57 1.61 1.57 1.47 1.46 1.54 1.55 1.44 1.23 1.19 1.17 1.20 1.44 1.54 1.23 1.14 1.20 1.22 1.26 1.36 1.56 1.73 1.83 1.84 1.82 1.76 1.71 1.69 1.70 1.65 1.60 1.56 1.58 1.52 1.43 1.43 1.51 1.51
1.45 1.58 1.55 1.46 1.46 1.59 1.66 1.61 1.63 1.71 1.72 1.81 1.79 1.51 1.32 1.23 1.18 1.42 1.54 1.38 1.34 1.36 1.34 1.34 1.39 1.51 1.69 1.83 1.87 1.84 1.86 1.81 1.78 1.75 1.70 1.65 1.62 1.63 1.62 1.58 1.58 1.59 1.51
1.37 1.44 1.49 1.45 1.45 1.52 1.59 1.62 1.62 1.68 1.78 1.82 1.78 1.57 1.42 1.25 1.34 1.57 1.74 1.62 1.51 1.51 1.51 1.47 1.49 1.58 1.67 1.76 1.75 1.70 1.71 1.78 1.76 1.72 1.67 1.64 1.60 1.56 1.57 1.61 1.61 1.64 1.60
1.35 1.38 1.41 1.41 1.43 1.44 1.47 1.58 1.68 1.75 1.81 1.85 1.73 1.58 1.53 1.43 1.49 1.63 1.70 1.65 1.57 1.52 1.50 1.49 1.54 1.63 1.68 1.68 1.67 1.65 1.66 1.70 1.69 1.67 1.69 1.68 1.66 1.62 1.64 1.63 1.62 1.65 1.67
1.19 1.24 1.32 1.35 1.35 1.33 1.32 1.32 1.39 1.50 1.63 1.67 1.57 1.52 1.50 1.54 1.52 1.56 1.64 1.64 1.58 1.53 1.45 1.46 1.48 1.48 1.49 1.49 1.45 1.48 1.52 1.52 1.53 1.57 1.67 1.71 1.72 1.69 1.66 1.61 1.57 1.61 1.65
0.89 0.92 0.93 0.98 1.02 1.09 1.14 1.17 1.18 1.23 1.35 1.41 1.33 1.36 1.38 1.40 1.38 1.40 1.45 1.47 1.47 1.47 1.43 1.38 1.37 1.37 1.32 1.29 1.29 1.29 1.28 1.30 1.31 1.37 1.45 1.56 1.61 1.66 1.66 1.62 1.63 1.63 1.68
0.85 0.85 0.83 0.86 0.89 0.95 1.02 1.07 1.13 1.20 1.24 1.24 1.25 1.27 1.28 1.28 1.29 1.32 1.30 1.28 1.28 1.26 1.21 1.21 1.24 1.24 1.25 1.17 1.09 1.06 1.11 1.11 1.11 1.18 1.22 1.34 1.43 1.51 1.56 1.57 1.62 1.67 1.68
0.79 0.85 0.86 0.89 0.92 0.96 1.03 1.09 1.13 1.11 1.10 1.10 1.13 1.18 1.23 1.22 1.19 1.18 1.13 1.11 1.13 1.12 1.09 1.07 1.08 1.11 1.11 1.06 1.03 1.03 1.00 0.92 0.95 1.07 1.09 1.16 1.29 1.37 1.42 1.47 1.47 1.55 1.60